Wind_Speed
3 3 2 1 1 2 2 2 2 0 1 2 3 3 3 3 3 3 4 4 4 4 4 5 5 5 6 6 6 5 4 4 3 3 3 4 5 5 6 5 5 5 6
3 3 2 1 1 2 3 3 3 2 1 1 1 1 1 1 1 1 1 1 1 1 2 2 3 3 3 3 4 4 4 3 3 2 3 3 4 5 5 5 5 5 6
3 3 2 2 2 3 4 4 4 4 3 3 2 2 2 3 3 2 2 1 2 2 2 3 3 3 3 2 1 2 2 2 2 2 3 3 4 4 5 5 5 5 5
4 4 4 4 4 5 5 5 5 5 5 5 5 5 5 5 5 5 4 4 4 4 4 5 5 5 5 4 3 2 1 1 1 2 3 3 4 4 5 5 5 5 6
4 4 5 5 6 6 6 6 7 7 7 7 7 7 7 7 8 7 7 6 6 6 6 6 7 7 7 7 6 5 4 3 3 3 3 4 4 5 5 6 6 6 6
5 6 7 8 8 8 8 8 9 9 9 9 9 9 10 10 10 9 9 8 8 7 7 8 8 8 8 9 8 8 7 6 5 5 5 5 5 6 6 7 7 7 7
7 9 10 10 10 10 10 11 10 11 11 12 12 12 11 12 11 11 10 10 9 9 9 9 9 10 11 11 11 11 10 10 9 8 8 7 7 8 8 8 9 9 9
10 11 12 13 13 13 13 14 14 14 14 14 15 14 14 13 13 12 11 11 11 11 10 11 11 12 12 12 12 13 13 12 12 12 11 10 10 10 10 10 10 11 10
12 13 15 15 16 16 16 17 17 17 17 17 17 17 17 16 15 14 14 13 13 12 12 13 13 13 13 13 13 14 15 14 14 15 14 13 13 12 12 12 13 13 13
14 15 17 18 19 19 19 19 20 20 20 21 21 21 20 19 18 17 16 16 15 15 15 15 15 15 15 15 15 15 16 16 16 16 17 17 17 15 15 15 15 15 15
18 18 19 20 21 22 22 22 22 22 23 24 24 24 23 22 21 19 18 17 17 17 17 17 17 17 17 17 17 17 17 16 17 17 19 20 20 20 18 17 17 17 17
20 20 21 21 23 24 24 25 25 25 25 25 25 24 23 23 23 22 20 19 19 19 20 19 19 19 19 19 19 18 18 18 17 17 18 20 23 23 22 21 20 19 19
20 20 20 21 23 24 25 26 26 26 26 26 26 25 25 24 23 22 22 21 21 22 22 21 20 21 20 20 20 19 19 19 18 18 18 20 23 26 26 24 24 22 21
19 19 20 21 22 24 24 24 25 25 24 23 24 24 23 23 24 23 23 23 24 24 23 23 23 23 23 23 22 21 20 20 19 20 19 19 22 24 27 28 27 26 25
19 19 19 20 20 21 21 21 22 21 21 22 22 22 23 24 24 24 24 25 25 26 26 26 26 26 25 25 24 23 22 22 21 22 21 21 21 24 26 29 30 30 29
17 17 17 17 17 18 18 19 20 20 20 20 21 21 21 22 23 24 25 26 27 27 27 27 27 26 26 26 26 26 25 24 23 23 23 22 22 24 26 29 31 33 32
15 15 15 15 15 16 17 18 18 18 18 19 20 20 21 21 22 23 24 24 25 26 28 28 28 27 28 28 27 27 27 26 26 25 25 25 24 24 26 28 31 35 36
13 13 13 13 13 14 15 16 17 18 18 19 20 20 21 22 22 23 24 24 25 26 27 27 28 28 28 28 28 28 28 28 28 28 27 27 27 27 27 28 30 33 37
11 11 12 12 13 13 14 16 16 17 18 19 20 21 21 22 23 24 24 25 25 26 26 27 28 28 29 29 29 29 30 30 30 30 29 30 30 29 29 30 31 32 35
10 10 11 11 12 13 15 16 17 18 20 21 21 22 22 23 23 23 24 24 25 26 26 27 27 28 28 28 29 29 30 31 31 31 31 31 31 32 31 32 32 33 35
9 10 10 12 13 15 16 18 19 21 22 22 22 22 23 23 23 23 24 23 24 25 25 26 26 27 27 27 28 29 30 31 31 32 32 33 33 33 33 33 34 34 35
9 10 11 13 15 17 18 20 22 23 24 24 24 23 23 23 23 23 23 23 23 24 24 25 25 26 27 27 27 28 29 30 30 32 33 34 34 34 35 35 35 36 37
9 11 13 15 17 18 20 21 22 23 23 23 23 22 22 22 22 22 22 23 23 23 24 24 24 25 26 26 27 28 29 30 30 31 33 34 35 35 36 37 37 37 38
11 13 15 17 18 20 21 21 22 22 21 21 21 21 21 21 21 21 22 22 23 23 24 25 25 26 27 27 28 29 29 30 31 32 33 34 35 36 37 37 38 39 39
12 14 16 18 19 19 19 20 20 21 21 21 21 21 20 20 20 20 21 22 23 24 25 26 26 27 28 29 30 30 31 32 33 34 35 35 36 37 38 38 38 39 40
13 15 17 17 18 18 19 20 20 20 21 21 21 21 21 21 21 21 22 23 24 25 26 27 28 29 30 31 32 33 34 35 36 36 37 38 39 39 38 39 38 39 39
Wind_Direction
48 55 52 34 350 314 304 302 305 309 132 138 133 127 123 116 109 107 101 90 76 64 56 52 51 54 58 66 71 71 71 72 76 89 102 114 122 124 124 128 134 140 142
30 35 38 11 303 287 284 280 278 272 252 207 185 174 176 170 159 145 122 94 50 28 19 15 15 20 32 50 65 72 77 83 92 112 127 134 137 138 135 133 134 140 144
14 1 349 316 282 274 271 266 264 262 261 260 257 255 257 254 254 251 254 269 284 296 302 308 311 319 325 335 19 63 79 96 121 147 154 155 156 154 149 143 141 147 148
354 339 321 303 289 277 272 268 261 257 256 257 263 268 267 267 267 267 267 269 274 282 285 286 287 289 292 294 291 285 268 172 167 176 179 172 171 171 167 161 157 157 157
336 324 311 300 291 283 276 271 266 261 260 261 264 267 268 269 269 271 271 272 275 279 281 282 282 281 280 279 277 272 263 249 228 208 202 195 188 187 186 180 173 169 166
324 316 307 299 293 287 281 275 272 271 269 268 268 268 268 268 268 270 271 271 275 279 281 280 278 278 277 274 270 267 262 254 244 232 220 212 205 200 199 194 186 180 175
312 307 303 297 293 289 285 281 278 279 278 276 274 272 269 267 266 267 268 270 274 277 279 278 278 278 276 272 267 262 260 254 247 240 230 222 215 211 207 203 196 189 184
305 302 298 293 291 289 288 286 284 283 282 281 278 274 270 266 263 263 264 267 270 273 274 276 278 279 278 274 267 262 259 255 248 241 236 229 220 216 213 209 204 198 193
299 294 290 288 286 284 285 285 285 284 282 280 279 276 272 267 263 262 262 263 267 270 271 273 275 276 276 278 273 265 260 257 250 244 240 232 225 220 217 215 211 205 200
296 288 284 282 280 280 280 281 282 281 280 278 276 274 270 266 263 261 261 262 267 268 269 272 273 273 273 274 274 270 266 263 254 247 241 234 228 224 220 217 214 211 206
295 287 282 280 278 276 276 278 278 278 277 278 277 277 271 265 264 262 262 263 267 270 269 271 273 273 274 275 275 274 274 270 265 256 247 237 229 226 223 220 216 214 212
293 286 282 281 278 276 277 278 278 278 277 279 281 279 274 268 268 266 266 270 269 271 271 270 273 275 276 277 277 276 274 272 270 263 253 241 232 228 226 224 219 216 215
292 286 282 280 279 278 278 279 281 280 280 282 281 280 278 273 270 270 271 275 275 271 271 272 274 275 275 276 277 276 273 272 270 268 260 246 235 231 228 227 223 219 216
290 285 281 283 282 280 280 283 284 283 282 284 282 281 282 280 276 272 273 274 275 272 271 273 274 274 275 276 275 273 271 269 268 267 264 254 242 235 230 228 226 222 220
291 288 285 286 287 286 288 292 293 291 288 288 287 287 286 283 282 280 279 279 277 275 273 276 277 275 274 274 272 270 267 265 265 264 264 257 249 240 233 230 228 225 224
293 292 291 290 291 293 294 296 295 295 293 291 291 292 290 288 283 281 280 280 277 275 274 276 277 275 274 273 270 268 266 264 263 261 260 254 249 246 241 235 230 227 225
294 293 293 293 296 298 298 298 299 298 298 298 297 295 293 290 288 283 283 282 281 278 276 275 274 273 273 272 270 268 265 262 261 259 255 252 249 249 246 241 234 229 226
295 296 298 299 300 300 299 300 300 301 301 299 297 295 293 291 289 287 285 283 281 279 277 276 274 273 271 270 269 267 265 262 260 258 255 250 247 247 246 241 237 232 229
294 300 304 305 305 305 306 306 306 306 305 303 302 300 298 295 291 289 287 285 282 279 277 275 274 272 271 269 268 265 263 262 259 257 254 251 248 246 246 242 239 236 232
299 305 308 308 310 310 311 311 311 310 308 307 305 303 301 299 296 292 290 287 283 280 278 276 275 273 271 269 267 265 263 260 258 255 253 252 250 247 245 243 241 239 236
304 310 314 316 317 316 316 316 315 314 313 312 311 308 305 303 301 298 295 291 287 284 281 278 276 273 272 270 268 266 263 260 258 255 253 251 250 248 246 244 242 240 239
317 320 320 320 320 320 320 319 318 317 315 313 311 309 307 304 302 300 298 295 292 289 286 283 279 276 273 271 269 266 263 260 258 256 253 251 250 248 246 244 243 241 241
326 326 325 325 323 322 320 318 318 317 315 312 311 309 307 306 304 302 299 297 294 291 288 286 283 280 277 273 269 267 264 262 260 256 253 252 249 248 246 244 243 243 241
330 328 326 324 322 321 320 319 319 317 316 316 314 312 310 309 307 304 302 299 296 294 291 289 287 284 280 276 272 268 265 262 259 257 254 252 250 248 247 245 244 242 241
328 325 324 323 323 322 322 321 319 319 319 318 316 315 314 312 310 308 305 302 299 297 294 292 289 286 283 280 275 271 267 263 260 257 256 254 251 249 247 245 245 243 241
325 324 324 325 325 323 322 321 321 320 319 318 317 315 314 313 311 310 308 306 302 300 297 295 292 289 286 282 278 273 269 264 260 257 255 254 252 250 248 246 245 242 239
Height
5919 5918 5918 5918 5917 5917 5916 5916 5915 5915 5915 5915 5914 5914 5913 5913 5912 5912 5911 5911 5910 5910 5909 5909 5908 5908 5907 5906 5906 5905 5904 5904 5903 5903 5903 5902 5902 5902 5902 5902 5903 5903 5903
5919 5918 5918 5918 5917 5917 5916 5916 5915 5915 5914 5914 5914 5914 5913 5913 5912 5912 5911 5911 5910 5910 5909 5909 5909 5908 5907 5907 5906 5905 5905 5904 5904 5903 5903 5903 5903 5903 5903 5903 5903 5904 5904
5918 5917 5917 5917 5917 5917 5916 5916 5915 5914 5914 5913 5913 5913 5912 5912 5912 5911 5911 5910 5910 5910 5909 5909 5908 5908 5907 5907 5906 5906 5905 5905 5904 5904 5903 5903 5903 5903 5903 5903 5904 5904 5905
5917 5916 5916 5916 5916 5916 5916 5915 5914 5914 5913 5913 5912 5912 5911 5911 5910 5910 5910 5909 5909 5909 5908 5908 5908 5907 5907 5906 5906 5906 5905 5905 5904 5904 5904 5903 5903 5903 5904 5904 5904 5905 5905
5916 5915 5915 5915 5915 5915 5914 5914 5913 5913 5912 5911 5911 5910 5910 5909 5909 5908 5908 5908 5908 5908 5907 5907 5906 5906 5906 5905 5905 5905 5905 5904 5904 5904 5903 5903 5903 5904 5904 5905 5905 5905 5906
5915 5914 5914 5914 5913 5913 5912 5912 5911 5911 5910 5910 5909 5908 5908 5907 5907 5906 5906 5906 5906 5906 5905 5905 5905 5904 5904 5903 5903 5903 5903 5903 5903 5903 5903 5903 5903 5903 5904 5905 5905 5906 5906
5914 5913 5913 5912 5912 5911 5910 5910 5909 5908 5908 5907 5907 5906 5905 5905 5904 5904 5904 5904 5904 5903 5903 5903 5902 5902 5901 5901 5901 5901 5901 5901 5902 5902 5902 5902 5903 5903 5904 5904 5905 5906 5906
5912 5912 5911 5910 5909 5909 5908 5907 5907 5906 5905 5905 5904 5903 5902 5902 5901 5901 5901 5901 5901 5901 5900 5900 5900 5899 5899 5898 5898 5898 5898 5899 5899 5900 5900 5901 5901 5902 5903 5904 5904 5905 5906
5910 5910 5909 5907 5907 5906 5905 5905 5904 5903 5902 5901 5901 5900 5899 5898 5898 5898 5897 5897 5897 5897 5897 5897 5896 5896 5895 5895 5895 5895 5895 5895 5896 5897 5897 5898 5899 5900 5901 5902 5903 5904 5905
5908 5907 5906 5905 5904 5903 5902 5901 5900 5899 5898 5897 5896 5896 5895 5894 5893 5893 5893 5893 5893 5893 5893 5892 5892 5892 5892 5892 5891 5891 5891 5892 5892 5893 5894 5895 5897 5898 5899 5900 5901 5903 5904
5905 5903 5902 5902 5900 5899 5898 5897 5896 5895 5894 5893 5891 5891 5890 5889 5888 5888 5888 5888 5888 5888 5888 5888 5888 5888 5888 5887 5887 5887 5887 5887 5888 5889 5890 5891 5893 5895 5896 5897 5899 5901 5902
5901 5900 5899 5898 5897 5896 5894 5893 5892 5891 5889 5888 5887 5886 5884 5883 5883 5882 5882 5882 5882 5882 5882 5883 5883 5883 5883 5882 5883 5883 5883 5883 5884 5884 5885 5886 5888 5890 5892 5894 5896 5897 5900
5897 5896 5895 5894 5892 5891 5890 5889 5888 5886 5885 5884 5882 5881 5879 5878 5877 5877 5877 5876 5876 5876 5877 5877 5877 5878 5878 5878 5878 5878 5878 5879 5879 5880 5880 5882 5883 5885 5888 5890 5892 5894 5896
5893 5892 5891 5890 5888 5887 5885 5884 5883 5881 5880 5879 5877 5876 5875 5874 5873 5872 5871 5871 5871 5871 5871 5871 5871 5872 5872 5872 5872 5873 5874 5874 5874 5875 5875 5876 5878 5880 5882 5885 5887 5889 5892
5889 5888 5887 5886 5885 5883 5881 5879 5878 5877 5875 5874 5873 5872 5871 5870 5869 5868 5866 5866 5866 5866 5865 5865 5865 5866 5866 5866 5867 5867 5868 5869 5869 5870 5870 5871 5872 5874 5876 5879 5881 5884 5887
5885 5884 5883 5882 5881 5879 5877 5876 5874 5873 5871 5870 5869 5868 5866 5865 5863 5863 5862 5861 5860 5859 5859 5859 5859 5860 5860 5860 5861 5861 5862 5863 5863 5864 5865 5866 5867 5869 5871 5873 5875 5878 5881
5881 5880 5879 5878 5877 5876 5874 5873 5871 5869 5868 5866 5865 5863 5861 5860 5858 5857 5856 5855 5854 5853 5853 5853 5853 5853 5853 5854 5854 5854 5855 5856 5857 5858 5858 5860 5861 5863 5864 5866 5869 5872 5875
5878 5877 5876 5875 5873 5872 5871 5869 5868 5866 5864 5862 5860 5858 5856 5854 5853 5851 5850 5849 5848 5847 5846 5846 5846 5846 5846 5846 5847 5847 5848 5848 5850 5851 5852 5853 5855 5856 5858 5860 5862 5865 5868
5876 5874 5873 5872 5870 5869 5867 5865 5863 5861 5859 5857 5855 5853 5851 5849 5847 5845 5844 5842 5841 5840 5840 5839 5839 5839 5839 5839 5839 5840 5840 5841 5842 5843 5845 5846 5847 5849 5851 5853 5855 5858 5861
5873 5872 5870 5869 5867 5865 5863 5861 5859 5857 5855 5852 5850 5847 5845 5843 5841 5839 5837 5836 5834 5834 5833 5832 5832 5831 5831 5831 5831 5832 5833 5833 5834 5835 5837 5838 5840 5842 5844 5846 5848 5851 5854
5870 5869 5867 5866 5864 5862 5859 5857 5855 5852 5850 5847 5844 5842 5839 5837 5835 5833 5831 5830 5828 5827 5826 5826 5825 5824 5824 5824 5824 5824 5825 5825 5826 5827 5829 5830 5832 5834 5836 5838 5841 5843 5846
5867 5866 5864 5862 5860 5858 5855 5853 5850 5847 5844 5842 5839 5837 5834 5832 5829 5827 5825 5824 5822 5821 5820 5819 5818 5817 5817 5817 5817 5817 5817 5818 5818 5819 5820 5822 5823 5825 5827 5830 5833 5835 5838
5864 5862 5861 5859 5857 5854 5852 5849 5846 5843 5840 5837 5835 5832 5829 5827 5824 5822 5820 5818 5816 5815 5813 5812 5811 5810 5809 5809 5809 5809 5809 5809 5810 5811 5812 5813 5814 5817 5819 5821 5824 5827 5829
5861 5859 5858 5856 5853 5851 5848 5845 5842 5839 5836 5833 5830 5827 5825 5822 5819 5817 5815 5813 5810 5809 5807 5805 5804 5803 5802 5801 5801 5801 5801 5801 5801 5802 5803 5804 5805 5807 5810 5812 5815 5817 5820
5859 5857 5855 5853 5850 5848 5845 5842 5839 5836 5833 5829 5826 5823 5820 5817 5815 5812 5810 5807 5805 5802 5800 5798 5797 5795 5794 5793 5792 5792 5792 5792 5792 5793 5794 5795 5796 5798 5800 5803 5805 5808 5810
5857 5855 5853 5850 5848 5845 5842 5839 5836 5833 5829 5826 5822 5819 5816 5813 5810 5807 5804 5801 5799 5796 5793 5791 5789 5787 5785 5784 5782 5782 5782 5782 5783 5784 5785 5785 5786 5788 5790 5793 5795 5798 5800